Regional Weather Roundup
Issued by NWS Cleveland, OH

Home | Current Version | Previous Version | Graphics & Text | Print | Product List | Glossary On
Versions: 1 2 3 4 5 6 7 8 9 10 11 12 13 14 15 16 17 18 19 20 21 22 23 24 25 26 27 28 29 30 31 32 33 34 35 36 37 38 39 40 41 42 43 44 45 46 47 48 49 50
000
ASUS41 KCLE 290802
RWRCLE
OHIO REGIONAL WEATHER ROUNDUP
NATIONAL WEATHER SERVICE CLEVELAND, OH
400 AM EDT SUN MAY 29 2016

NOTE: "FAIR" INDICATES FEW OR NO CLOUDS BELOW 12,000 FEET WITH NO
SIGNIFICANT WEATHER AND/OR OBSTRUCTIONS TO VISIBILITY.

OHZ001>008-015>018-024>027-034-035-043-044-290900-
   NORTHWEST OHIO

CITY           SKY/WX    TMP DP  RH WIND       PRES   REMARKS
DEFIANCE       MOCLDY    71  63  75 S7        30.05F
FINDLAY        CLOUDY    68  61  78 S8        30.07S
TOLEDO EXPRESS CLOUDY    68  62  81 S5        30.05S
TOLEDO EXEC    PTCLDY    69  62  78 S7        30.06F
LIMA           CLOUDY    70  63  78 S7        30.08S
$$

OHZ009>014-019>023-028>033-038-089-290900-
   NORTHEAST OHIO

CITY           SKY/WX    TMP DP  RH WIND       PRES   REMARKS
CLE-HOPKINS    CLOUDY    69  63  81 CALM      30.11S
CLE-LAKEFRONT  PTCLDY    69  64  84 CALM      30.08R
CUY CO. ARPT   NOT AVBL
LORAIN-ELYRIA  CLOUDY    66  63  90 CALM      30.09F
ASHTABULA      PTCLDY    67  66  97 CALM      30.11R
AKRON-CANTON   MOCLDY    68  62  81 CALM      30.12R
WOOSTER        CLOUDY    64  62  93 CALM      30.12S FOG
MANSFIELD      MOCLDY    67  65  93 S7        30.11S
YOUNGSTOWN     PTCLDY    63  61  93 SE3       30.12R
$$

OHZ042-051>053-060>062-070>072-077>081-290900-
  SOUTHWEST OHIO

CITY           SKY/WX    TMP DP  RH WIND       PRES   REMARKS
CINC-COVINGTON CLOUDY    68  63  84 S5        30.09
CINC-LUNKEN    CLOUDY    66  64  93 CALM      30.09F
HAMILTON       CLOUDY    67  64  90 CALM      30.09F
DAYTON         CLOUDY    71  62  73 S7        30.10S
WRIGHT-PAT AFB NOT AVBL
DAYTON GENERAL CLOUDY    67  60  78 S6        30.09F
WILMINGTON     CLOUDY    66  61  84 SW3       30.10S
$$

OHZ036-037-039>041-045>050-054>059-063>069-073>076-082>088-290900-
  CENTRAL AND SOUTHEAST OHIO

CITY           SKY/WX    TMP DP  RH WIND       PRES   REMARKS
COLUMBUS       CLOUDY    66  65  96 CALM      30.09F
OSU AIRPORT    CLOUDY    67  66  97 CALM      30.10S FOG
BOLTON FIELD   NOT AVBL
RICKENBACK AFB NOT AVBL
NEWARK         CLOUDY    66  64  93 CALM      30.11R FOG
MARION         PTCLDY    66  64  93 S6        30.10S FOG
LANCASTER      CLOUDY    66  64  93 CALM      30.11S FOG
ZANESVILLE     CLOUDY    67  64  90 CALM      30.10S
NEW PHILLY     MOCLDY    66  62  87 CALM      30.11S
$$




USA.gov is the U.S. government's official web portal to all federal, state and local government web resources and services.